Погода в Сержень-Юрте

Россия / Чеченская Республика     43°06′42″N   45°59′24″E
темп.,
°C
ветер,
м/с
пор.,
м/с
влажн.,
%
обл.,
%
осадки,
мм/ч
давл.,
гПа
погр.,
м
9 мая, вс
вс900:00+12ю22680 0.0 101126
03:00+12ююв33513 0.0 100931
06:00+14ю2258100 0.0 100833
09:00+19ссз224898 0.0 1008437
12:00+20ссз42492 0.0 10071119
15:00+19сз3465100 0.2 10071259
18:00+10зсз5998100 3.6 1013666
21:00+5зсз4996100 6.6 1021935
10 мая, пн
пн1000:00+4з3897100 2.1 1022757
03:00+3юз3894100 4.8 1023673
06:00+3ююз3792100 1.8 1024632
09:00+6зюз2573100 2.4 10231191
12:00+8сз346176 0.6 10211505
15:00+8сз2364100 1.1 10201175
18:00+5ю1292100 1.7 1022250
21:00+4ю239574 2.3 1023151
11 мая, вт
вт1100:00+4ююв119377 0.2 102145
03:00+3ююв119081 0.2 102022
06:00+4ююв22834 0.0 101997
09:00+10ссв22586 0.0 1016936
12:00+13с335294 0.0 10141503
15:00+12с326188 0.0 1015908
18:00+11ссз117320 0.0 1016196
21:00+6ююз22906 0.0 101816
12 мая, ср
ср1200:00+6ю11890 0.0 101711
03:00+5ю21900 0.0 101711
06:00+8ю00800 0.0 101782
09:00+13с21660 0.0 1016657
12:00+16с335929 0.0 10161014
15:00+16с326250 0.0 10161003
18:00+14с12766 0.0 1017163
21:00+10ю21910 0.0 101714
13 мая, чт
чт1300:00+10ю22855 0.0 101716
03:00+10ююв227620 0.0 101618
06:00+12ююв11704 0.0 101633
09:00+19с22550 0.0 1015501
12:00+22с32520 0.0 1015836
15:00+22с32545 0.0 1014927
18:00+18ссз128098 0.2 1015106
21:00+14ю118912 0.2 101611